Powrót do katalogu

CP3

AktywnyNaukaSSO
NORAD 31129·PAYLOAD·🇺🇸 United States

Wystrzelony Apr 17, 2007 z Baikonur Cosmodrome

Loading…

Następne Przeloty (najbliższe 24 godziny)

TLE

ŚwieżeSource: Space-Track

Epoka: Sep 14, 2026, 04:26 UTC

1 31129U 07012N   26257.18528552  .00000795  00000-0  14730-3 0  9993
2 31129  98.4638 239.6650 0082208 141.4528 219.2584 14.66113402 31779

Śledź CP3 w czasie rzeczywistym z AllMySat

Download on the App Store